sat.trackr.live / text

‹ back to catalog

STARLINK-31002

NORAD 58495 · 2023-186Y

PAYLOAD ACTIVE UNKNOWN

§ Identity

Operator
Country
US
Launch date
2023-12-03
Launch site
AFETR
Launch vehicle
Mass (kg)
RCS (m²)

Purposes: comms

External: N2YO · Heavens-Above · Gunter

§ Orbital elements

Epoch: 2026-09-19T16:38:02.582880Z

Period
94.27 min
Inclination
43.0006°
Eccentricity
0.0001458
Mean motion
15.27567621 rev/d
Perigee alt
482.1 km
Apogee alt
484.1 km
Semi-major
6,861.2 km
B*
-4.2935e-5
RAAN
48.2597°
Arg perigee
269.4448°
Mean anomaly
90.6236°
Rev number
15,572

§ Raw data

STARLINK-310021 58495U 23186Y   26262.69308545 -.00001443  00000+0 -42935-4 0  99992 58495  43.0006  48.2597 0001458 269.4448  90.6236 15.27567621155724

JSON: /api/v1/satellites/58495 · /tle

For live sub-satellite position, see the globe view (requires WebGL).

§ Visibility from observer

Set your observer location to see the next 7 days of passes ≥ 10°. The values pass through the URL so the page stays shareable.

No JS? Fill the form by hand. The geolocation button needs JavaScript.